Tracking 28920 objects as of 26-May-2024
HD Live streaming from Space Station
objects crossing your sky now

COSMOS 2498

Track COSMOS 2498 now!
10-day predictions
COSMOS 2498 is classified as:


NORAD ID: 39763
Int'l Code: 2014-028C
Perigee: 1,485.9 km
Apogee: 1,516.7 km
Inclination: 82.4 °
Period: 115.9 minutes
Semi major axis: 7872 km
RCS: Unknown
Launch date: May 23, 2014
Source: Commonwealth of Independent States (former USSR) (CIS)
Launch site: PLESETSK MISSILE AND SPACE COMPLEX (PKMTR)

COSMOS 2498 is part of the Russian military's Rodnik, or Strela 3M, system designed to relay messages between users posted in remote locations.
Your satellite tracking list
Your tracking list is empty




NASA's NSSDC Master Catalog

Two Line Element Set (TLE):
1 39763U 14028C   24146.53506635  .00000060  00000-0  36395-3 0  9998
2 39763  82.4479 220.3396 0019535 272.4310  87.4533 12.42939878454041
Source of the keplerian elements: AFSPC